sat.trackr.live / text

‹ back to catalog

STARLINK-35212

NORAD 65496 · 2025-198E

PAYLOAD ACTIVE UNKNOWN

§ Identity

Operator
Country
US
Launch date
2025-09-05
Launch site
AFETR
Launch vehicle
Mass (kg)
RCS (m²)

Purposes: comms

External: N2YO · Heavens-Above · Gunter

§ Orbital elements

Epoch: 2026-05-24T17:59:04.753248Z

Period
94.11 min
Inclination
53.1578°
Eccentricity
0.0001036
Mean motion
15.30204065 rev/d
Perigee alt
474.5 km
Apogee alt
475.9 km
Semi-major
6,853.3 km
B*
3.2407e-4
RAAN
277.8172°
Arg perigee
87.4923°
Mean anomaly
272.6196°
Rev number
4,026

§ Raw data

STARLINK-352121 65496U 25198E   26144.74936057  .00009252  00000+0  32407-3 0  99992 65496  53.1578 277.8172 0001036  87.4923 272.6196 15.30204065 40269

JSON: /api/v1/satellites/65496 · /tle

For live sub-satellite position, see the globe view (requires WebGL).

§ Visibility from observer

Set your observer location to see the next 7 days of passes ≥ 10°. The values pass through the URL so the page stays shareable.

No JS? Fill the form by hand. The geolocation button needs JavaScript.